MQT1AD EDDL-EDDH

Flight info

Callsign MQT1AD
Flight time 0h 34m
Altitude 33000
Route MEVEL4T MEVEL Y850 MUBZI M105 RIBSO RIBSO3D
Aircraft B738/M-SDE2E3FGHIRWXY/LB1

Departure

Time 2026-05-01 08:44
Airport Düsseldorf Airport (EDDL)

Arrival

Time 2026-05-01 09:19
Airport Hamburg Helmut Schmidt Airport (EDDH)
Time Latitude Longitude Altitude Speed Heading
2026-05-01 08:14 51.28046 6.76369 123 ft 0 kts 197°
2026-05-01 08:20 51.28058 6.76376 123 ft 7 kts 208°
2026-05-01 08:20 51.28075 6.76400 124 ft 9 kts 263°
2026-05-01 08:20 51.28069 6.76437 122 ft 8 kts 310°
2026-05-01 08:20 51.28054 6.76459 122 ft 0 kts 327°
2026-05-01 08:23 51.28062 6.76451 122 ft 0 kts 327°
2026-05-01 08:40 51.28107 6.76404 127 ft 0 kts 327°
2026-05-01 08:41 51.28123 6.76388 124 ft 0 kts 326°
2026-05-01 08:41 51.28131 6.76380 125 ft 0 kts 327°
2026-05-01 08:42 51.28136 6.76374 125 ft 2 kts 327°
2026-05-01 08:42 51.29567 6.78574 125 ft 0 kts 233°
2026-05-01 08:43 51.29524 6.78486 150 ft 37 kts 233°
2026-05-01 08:43 51.29193 6.77782 132 ft 120 kts 230°
2026-05-01 08:44 51.28557 6.76454 296 ft 169 kts 233°
2026-05-01 08:44 51.27825 6.74954 1137 ft 175 kts 232°
2026-05-01 08:44 51.27080 6.73324 1925 ft 188 kts 237°
2026-05-01 08:44 51.26839 6.71314 2646 ft 188 kts 282°
2026-05-01 08:45 51.27560 6.69588 3313 ft 192 kts 327°
2026-05-01 08:45 51.28777 6.68633 3948 ft 201 kts 346°
2026-05-01 08:45 51.30192 6.68597 4533 ft 211 kts
2026-05-01 08:45 51.31697 6.68775 4987 ft 227 kts
2026-05-01 08:46 51.33342 6.68989 5551 ft 245 kts
2026-05-01 08:46 51.35079 6.69194 6316 ft 259 kts
2026-05-01 08:46 51.36937 6.69392 7045 ft 273 kts
2026-05-01 08:46 51.38856 6.69586 7941 ft 278 kts
2026-05-01 08:47 51.40810 6.69666 8861 ft 283 kts 360°
2026-05-01 08:47 51.42791 6.69638 9781 ft 287 kts 359°
2026-05-01 08:47 51.44789 6.69590 10503 ft 299 kts 359°
2026-05-01 08:47 51.46931 6.69567 11029 ft 316 kts 359°
2026-05-01 08:48 51.49200 6.69574 11529 ft 334 kts 360°
2026-05-01 08:48 51.51589 6.69594 12008 ft 351 kts 360°
2026-05-01 08:48 51.54064 6.69612 12701 ft 360 kts 360°
2026-05-01 08:48 51.56597 6.69621 13507 ft 365 kts 360°
2026-05-01 08:49 51.59115 6.69956 14316 ft 370 kts 12°
2026-05-01 08:49 51.61558 6.71333 15125 ft 375 kts 27°
2026-05-01 08:49 51.63713 6.73743 15938 ft 380 kts 43°
2026-05-01 08:49 51.65432 6.76998 16727 ft 384 kts 53°
2026-05-01 08:50 51.67041 6.80484 17465 ft 389 kts 53°
2026-05-01 08:50 51.68643 6.84025 18201 ft 394 kts 54°
2026-05-01 08:50 51.70270 6.87612 18899 ft 398 kts 53°
2026-05-01 08:50 51.71924 6.91223 19583 ft 402 kts 53°
2026-05-01 08:51 51.73603 6.94870 20251 ft 406 kts 53°
2026-05-01 08:51 51.75294 6.98550 20891 ft 410 kts 53°
2026-05-01 08:51 51.76997 7.02277 21513 ft 414 kts 53°
2026-05-01 08:51 51.78691 7.05998 22102 ft 418 kts 53°
2026-05-01 08:52 51.80417 7.09797 22682 ft 422 kts 53°
2026-05-01 08:52 51.82164 7.13646 23239 ft 425 kts 53°
2026-05-01 08:52 51.83917 7.17509 23774 ft 429 kts 53°
2026-05-01 08:52 51.85744 7.21349 24269 ft 432 kts 46°
2026-05-01 08:53 51.88052 7.24460 24792 ft 434 kts 35°
2026-05-01 08:53 51.90520 7.27310 25240 ft 438 kts 34°
2026-05-01 08:53 51.93051 7.30095 25678 ft 441 kts 33°
2026-05-01 08:53 51.94758 7.31894 25966 ft 443 kts 32°
2026-05-01 08:54 51.97363 7.34593 26375 ft 446 kts 32°
2026-05-01 08:54 51.99974 7.37328 26782 ft 448 kts 33°
2026-05-01 08:54 52.02589 7.40135 27170 ft 451 kts 33°
2026-05-01 08:54 52.05207 7.42985 27540 ft 453 kts 33°
2026-05-01 08:55 52.07839 7.45847 27892 ft 456 kts 33°
2026-05-01 08:55 52.10482 7.48700 28235 ft 458 kts 33°
2026-05-01 08:55 52.13157 7.51574 28567 ft 460 kts 33°
2026-05-01 08:55 52.15803 7.54422 28884 ft 463 kts 33°
2026-05-01 08:56 52.18496 7.57335 29191 ft 465 kts 33°
2026-05-01 08:56 52.21180 7.60251 29693 ft 462 kts 33°
2026-05-01 08:56 52.23853 7.63160 30128 ft 461 kts 33°
2026-05-01 08:56 52.26519 7.66061 30549 ft 460 kts 33°
2026-05-01 08:57 52.29181 7.68958 30953 ft 459 kts 33°
2026-05-01 08:57 52.31836 7.71852 31346 ft 459 kts 33°
2026-05-01 08:57 52.34336 7.75085 31743 ft 457 kts 44°
2026-05-01 08:57 52.36597 7.78645 32123 ft 457 kts 44°
2026-05-01 08:58 52.38885 7.82263 32374 ft 459 kts 44°
2026-05-01 08:58 52.41166 7.85932 32625 ft 460 kts 44°
2026-05-01 08:58 52.43441 7.89644 32878 ft 462 kts 45°
2026-05-01 08:58 52.45724 7.93378 32998 ft 465 kts 45°
2026-05-01 08:59 52.50266 8.00753 33004 ft 446 kts 44°
2026-05-01 08:59 52.52440 8.04279 33006 ft 432 kts 44°
2026-05-01 08:59 52.54537 8.07693 33005 ft 419 kts 44°
2026-05-01 09:00 52.56570 8.11018 33006 ft 406 kts 45°
2026-05-01 09:00 52.58524 8.14217 33004 ft 394 kts 45°
2026-05-01 09:00 52.60445 8.17365 32651 ft 392 kts 45°
2026-05-01 09:00 52.62449 8.20648 31536 ft 419 kts 45°
2026-05-01 09:01 52.64545 8.24086 30342 ft 432 kts 45°
2026-05-01 09:01 52.66699 8.27625 29442 ft 440 kts 45°
2026-05-01 09:01 52.68868 8.31198 28725 ft 442 kts 45°
2026-05-01 09:01 52.71042 8.34784 28051 ft 442 kts 45°
2026-05-01 09:02 52.73216 8.38375 27393 ft 442 kts 45°
2026-05-01 09:02 52.75390 8.41971 26727 ft 442 kts 45°
2026-05-01 09:02 52.77562 8.45568 26054 ft 442 kts 45°
2026-05-01 09:02 52.79728 8.49160 25372 ft 441 kts 45°
2026-05-01 09:03 52.81889 8.52750 24695 ft 440 kts 45°
2026-05-01 09:03 52.84046 8.56339 24004 ft 439 kts 45°
2026-05-01 09:03 52.86199 8.59928 23309 ft 438 kts 45°
2026-05-01 09:03 52.88343 8.63505 22610 ft 437 kts 45°
2026-05-01 09:04 52.90456 8.67035 21914 ft 436 kts 45°
2026-05-01 09:04 52.92614 8.70648 21190 ft 435 kts 45°
2026-05-01 09:04 52.94738 8.74208 20474 ft 433 kts 45°
2026-05-01 09:04 52.96853 8.77760 19742 ft 432 kts 45°
2026-05-01 09:05 52.98958 8.81298 19023 ft 430 kts 45°
2026-05-01 09:05 53.01033 8.84791 18303 ft 428 kts 45°
2026-05-01 09:05 53.03121 8.88312 17569 ft 426 kts 45°
2026-05-01 09:05 53.05169 8.91770 16835 ft 414 kts 45°
2026-05-01 09:06 53.07158 8.95134 16119 ft 403 kts 45°
2026-05-01 09:06 53.09098 8.98420 15418 ft 393 kts 45°
2026-05-01 09:06 53.10991 9.01631 14726 ft 384 kts 45°
2026-05-01 09:06 53.12839 9.04768 14036 ft 375 kts 45°
2026-05-01 09:07 53.14659 9.07862 13355 ft 373 kts 45°
2026-05-01 09:07 53.16466 9.10938 12683 ft 371 kts 45°
2026-05-01 09:07 53.18244 9.13968 12001 ft 369 kts 45°
2026-05-01 09:07 53.20054 9.17058 11302 ft 367 kts 45°
2026-05-01 09:08 53.21809 9.20058 10618 ft 364 kts 45°
2026-05-01 09:08 53.23539 9.23017 10430 ft 347 kts 45°
2026-05-01 09:08 53.25202 9.25866 10064 ft 337 kts 45°
2026-05-01 09:08 53.26800 9.28607 9833 ft 322 kts 45°
2026-05-01 09:09 53.28330 9.31233 9666 ft 307 kts 45°
2026-05-01 09:09 53.29792 9.33745 9376 ft 298 kts 45°
2026-05-01 09:09 53.31208 9.36184 9248 ft 285 kts 45°
2026-05-01 09:09 53.32544 9.38486 9140 ft 268 kts 45°
2026-05-01 09:10 53.33808 9.40665 8964 ft 256 kts 45°
2026-05-01 09:10 53.35039 9.42788 8800 ft 253 kts 45°
2026-05-01 09:10 53.36213 9.44962 8665 ft 251 kts 49°
2026-05-01 09:10 53.37330 9.47213 8438 ft 253 kts 50°
2026-05-01 09:11 53.38422 9.49451 8063 ft 249 kts 50°
2026-05-01 09:11 53.39529 9.51688 7558 ft 248 kts 50°
2026-05-01 09:11 53.40625 9.53871 7065 ft 243 kts 49°
2026-05-01 09:11 53.41715 9.56032 6580 ft 240 kts 49°
2026-05-01 09:12 53.42790 9.58167 6079 ft 238 kts 50°
2026-05-01 09:12 53.43850 9.60300 5599 ft 236 kts 50°
2026-05-01 09:12 53.44904 9.62407 5122 ft 234 kts 49°
2026-05-01 09:12 53.45939 9.64471 4830 ft 231 kts 50°
2026-05-01 09:13 53.46973 9.66536 4509 ft 225 kts 50°
2026-05-01 09:13 53.47946 9.68478 4216 ft 215 kts 50°
2026-05-01 09:13 53.48878 9.70342 3939 ft 203 kts 50°
2026-05-01 09:13 53.49775 9.72136 3680 ft 198 kts 50°
2026-05-01 09:14 53.50652 9.73893 3428 ft 194 kts 50°
2026-05-01 09:14 53.51515 9.75621 3163 ft 191 kts 50°
2026-05-01 09:14 53.52361 9.77317 2911 ft 186 kts 50°
2026-05-01 09:14 53.53176 9.78952 2677 ft 178 kts 49°
2026-05-01 09:15 53.53941 9.80488 2431 ft 163 kts 50°
2026-05-01 09:15 53.54645 9.81898 2239 ft 154 kts 49°
2026-05-01 09:15 53.55306 9.83230 2044 ft 146 kts 50°
2026-05-01 09:15 53.55950 9.84524 1845 ft 141 kts 50°
2026-05-01 09:16 53.56578 9.85789 1661 ft 140 kts 50°
2026-05-01 09:16 53.57195 9.87031 1472 ft 140 kts 50°
2026-05-01 09:16 53.57815 9.88279 1300 ft 139 kts 50°
2026-05-01 09:17 53.59043 9.90771 949 ft 136 kts 50°
2026-05-01 09:17 53.59655 9.92014 824 ft 138 kts 50°
2026-05-01 09:17 53.60891 9.94483 378 ft 138 kts 49°
2026-05-01 09:18 53.61504 9.95716 238 ft 137 kts 51°
2026-05-01 09:18 53.62604 9.97941 51 ft 79 kts 50°
2026-05-01 09:19 53.63024 9.98794 48 ft 28 kts 53°
2026-05-01 09:19 53.63090 9.98955 52 ft 9 kts 53°
2026-05-01 09:19 53.63104 9.98988 52 ft 13 kts 56°
2026-05-01 09:20 53.63204 9.99186 53 ft 0 kts 49°